Regional Weather Roundup
Issued by NWS Boston, MA

Current Version | Previous Version | Graphics & Text | Print | Product List | Glossary On
Versions: 1 2 3 4 5 6 7 8 9 10 11 12 13 14 15 16 17 18 19 20 21 22 23 24 25 26 27 28 29 30 31 32 33 34 35 36 37 38 39 40 41 42 43 44 45 46 47 48 49 50
000
ASUS41 KBOX 140710
RWRBOX

REGIONAL WEATHER ROUNDUP
NATIONAL WEATHER SERVICE BOSTON/NORTON MA
200 AM EST THU NOV 14 2019

NOTE:  "FAIR" INDICATES FEW OR NO CLOUDS BELOW 12,000 FEET WITH NO
SIGNIFICANT WEATHER AND/OR OBSTRUCTIONS TO VISIBILITY.

MAZALL-140800-
EASTERN MASSACHUSETTS

CITY           SKY/WX    TMP DP  RH WIND       PRES   REMARKS
BOSTON         MOCLDY    24   6  46 NW8       30.48R WCI  15
BEVERLY        FAIR      18   9  68 NW6       30.46R WCI  10
LAWRENCE       FAIR      18   9  68 CALM      30.49R
BEDFORD        FAIR      15   9  76 CALM      30.47R
BLUE HILL        N/A     18   5  57 NW8       30.42R WCI   8
NORWOOD        FAIR      17   9  70 CALM      30.48R
MARSHFIELD     FAIR      21  10  63 W5        30.46S WCI  15
PLYMOUTH       FAIR      20   9  62 NW6       30.46R WCI  12
TAUNTON        FAIR      15  10  80 CALM      30.47R
NEW BEDFORD    FAIR      21   7  54 CALM      30.46S
$$

MAZALL-140800-
CAPE COD AND THE ISLANDS

CITY           SKY/WX    TMP DP  RH WIND       PRES   REMARKS
FALMOUTH       CLEAR     19   9  63 NW7       30.45R WCI  10
HYANNIS        FAIR      24  12  60 W6        30.44R WCI  17
CHATHAM        FAIR      24  17  74 NW3       30.45R
PROVINCETOWN   CLOUDY    28  18  66 N3        30.46R
NANTUCKET      FAIR      26  18  71 W3        30.45R
MARTHAS VNYRD  FAIR      22  12  65 NW5       30.46R WCI  16
$$

MAZALL-140800-
CENTRAL AND WESTERN MASSACHUSETTS

CITY           SKY/WX    TMP DP  RH WIND       PRES   REMARKS
WORCESTER      FAIR      17   7  64 CALM      30.40R
FITCHBURG      FAIR      16   8  71 NW3       30.46R
ORANGE         MOCLDY    16  10  77 CALM      30.44S
SPRINGFIELD    FAIR      18  12  76 CALM      30.45R
WESTFIELD      FAIR      17  11  77 CALM      30.46R
NORTH ADAMS    CLOUDY    18   9  68 SE3       30.41F
PITTSFIELD     CLOUDY    17  10  74 CALM      30.36R
$$

RIZALL-140800-
RHODE ISLAND

CITY           SKY/WX    TMP DP  RH WIND       PRES   REMARKS
PROVIDENCE     FAIR      21  10  62 CALM      30.48S
NEWPORT        FAIR      24   5  44 N6        30.46S WCI  17
BLOCK ISLAND   FAIR      25  14  63 N6        30.46F WCI  18
SMITHFIELD     FAIR      14   7  73 CALM      30.45R
WESTERLY       FAIR      21  13  71 N3        30.48S
$$

CTZALL-140800-
CONNECTICUT

CITY           SKY/WX    TMP DP  RH WIND       PRES   REMARKS
BRADLEY INTL   CLOUDY    20  10  65 CALM      30.46R
HARTFORD       FAIR      21  13  71 CALM      30.48R
BRIDGEPORT     FAIR      25   8  48 N8        30.47R WCI  16
DANBURY        FAIR      17  11  77 CALM      30.45R
GROTON         FAIR      22  11  62 N6        30.48S WCI  14
NEW HAVEN      FAIR      24   9  52 N3        30.47R
CHESTER        FAIR      19   9  63 CALM      30.45R
MERIDEN        FAIR      19  11  70 CALM      30.47R
WILLIMANTIC    FAIR      17  11  77 CALM      30.47S
OXFORD         FAIR      19   8  62 CALM      30.43R
$$

MEZ002-015-021-024-NHZ003-005-008-011-012-014-VTZ005-008-140800-
NORTHERN NEW ENGLAND

CITY           SKY/WX    TMP DP  RH WIND       PRES   REMARKS
PORTLAND ME    FAIR      15   8  73 W5        30.47R WCI   8
BANGOR ME      FAIR       8   7  95 CALM      30.43S
CONCORD NH     FAIR      11   8  88 CALM      30.45R
MANCHESTER NH  MOCLDY    17  10  74 CALM      30.45R
NASHUA NH      FAIR      13   8  81 W3        30.48R
PORTSMOUTH NH  MOCLDY    17   9  70 NW5       30.46R WCI  10
JAFFREY NH     FAIR      13  10  88 CALM      30.39R
KEENE NH       FAIR      15  11  83 CALM      30.45R
BURLINGTON VT  CLOUDY    17   8  67 SE6       30.40F WCI   9
MT. WASHINGTON MOCLDY     3 -22  30 NE9         N/A  WCI -11
$$

NYZ052-076-140800-
EASTERN NEW YORK

CITY           SKY/WX    TMP DP  RH WIND       PRES   REMARKS
ALBANY         CLOUDY    21  11  65 CALM      30.44S
NEW YORK CITY  MOCLDY    30   9  41 E6        30.45F WCI  24
$$

ANZALL-140800-
MARINE OBSERVATIONS

STATION/POSITION TIME  TEMP    WIND        PRES    VSBY  WAVE
                       AIR SEA DIR/SP/G                  HT/PER
                 (UTC) (F)     (DEG/KT/KT) (MB)    (MI)  (FT/S)
BOSTON BUOY      0650   28 52  330/  8/ 10 1030.9R         2/ 3
BUZZARDS BAY     0600   27     360/ 12/ 16 1032.0R
NANTUCKET SOUND  0640      50                N/A           1/ 3
MASS BAY-STELLWA 0604   29 51   30/  6/ 12 1030.5R  1 7/8  2/ 4
ISLE OF SHOALS   0600   25     330/  9/ 11 1030.8S
S OF BLOCK IS    0700      58                N/A           2/14
$$

......................KEY.........................
  SKY/WX - SKY CONDITION/PRESENT WEATHER
  TMP    - TEMPERATURE IN FAHRENHEIT
  DWPT   - DEWPOINT IN FAHRENHEIT
  RH     - RELATIVE HUMIDITY IN PERCENT
  WIND   - DIRECTION AND SPEED IN MPH
  PRES   - MEAN SEA LEVEL PRESSURE IN INCHES OF HG
  WCI    - WIND CHILL INDEX
  VSB    - VISIBILITY IN MILES
  HX     - HEAT INDEX
  TC     - TEMPERATURE IN CELSIUS
  VRB    - VARIABLE WIND DIRECTION
  N/A    - NOT AVAILABLE



USA.gov is the U.S. government's official web portal to all federal, state and local government web resources and services.